Regional Weather Roundup
Issued by NWS Sioux Falls, SD

Home | Current Version | Previous Version | Graphics & Text | Print | Product List | Glossary Off
Versions: 1 2 3 4 5 6 7 8 9 10 11 12 13 14 15 16 17 18 19 20 21 22 23 24 25 26 27 28 29 30 31 32 33 34 35 36 37 38 39 40 41 42 43 44 45 46 47 48 49 50

000
ASUS43 KFSD 281310
RWRFSD

WEATHER ROUNDUP FOR SE SOUTH DAKOTA/SW MINNESOTA/NW IOWA
NATIONAL WEATHER SERVICE SIOUX FALLS SD
800 AM CDT THU MAY 28 2015

NOTE: "FAIR" INDICATES FEW OR NO CLOUDS BELOW 12,000 FEET WITH NO
SIGNIFICANT WEATHER AND OR OBSTRUCTIONS TO VISIBILITY.


SDZ038>040-050-052>070-281400-
SOUTHEAST SOUTH DAKOTA

CITY           SKY/WX    TMP DP  RH WIND       PRES   REMARKS
BROOKINGS      CLOUDY    64  54  68 S9        30.02F
CHAMBERLAIN    PTSUNNY   65  59  82 S12       29.93F
HURON            N/A    N/A N/A N/A MISG      29.95F
MADISON        FAIR      64  55  72 S9        30.02S
MITCHELL       PTSUNNY   65  57  75 SE13      29.98S
SIOUX FALLS    CLOUDY    67  53  61 S13       30.02S
WINNER         FAIR      67  57  70 S15G23    29.94F
YANKTON        CLOUDY    66  54  63 S12       30.00S
$$

MNZ071-072-080-081-089-090-097-098-281400-
SOUTHWEST MINNESOTA

CITY           SKY/WX    TMP DP  RH WIND       PRES   REMARKS
FAIRMONT       MOSUNNY   64  52  63 S10       30.09S
JACKSON        MOSUNNY   64  54  68 S7        30.08F
LUVERNE        CLOUDY    63  54  72 CALM      30.05F
MARSHALL       PTSUNNY   68  50  52 SW12      30.02S
MONTEVIDEO     PTSUNNY   66  55  68 SW8       30.02R
REDWOOD FALLS  MOSUNNY   66  54  65 S7        30.04R
TRACY          MOSUNNY   67  53  60 S10       30.04S
WINDOM         MOSUNNY   68  54  60 CALM      30.07S
WORTHINGTON    PTSUNNY   66  50  55 S14       30.07S
$$

IAZ001>003-012>014-020>022-031-032-NEZ013-014-SDZ071-281400-
NORTHWEST IOWA

CITY           SKY/WX    TMP DP  RH WIND       PRES   REMARKS
CHEROKEE       PTSUNNY   63  58  81 S6        30.08S
DENISON        CLOUDY    64  57  77 S10       30.07F
ESTHERVILLE    MOSUNNY   61  56  83 S13       30.09S
LE MARS        PTSUNNY   64  55  72 VRB6      30.06F
ORANGE CITY    PTSUNNY   64  52  63 S8        30.06F
SHELDON        PTSUNNY   64  54  68 S10       30.06S
SIOUX CITY     PTSUNNY   64  55  72 SE8       30.06S
SPENCER        PTSUNNY   64  57  78 S9        30.09S
STORM LAKE     PTSUNNY   64  55  72 S13       30.10F
$$

ABBREVIATIONS USED IN REMARKS
   TC - TEMPERATURE IN CELSIUS
  WCI - WIND CHILL INDEX
   HX - HEAT INDEX
  VSB - VISIBILITY



USA.gov is the U.S. government's official web portal to all federal, state and local government web resources and services.